TimeEST,TemperatureF,Dew PointF,Humidity,Sea Level PressureIn,VisibilityMPH,Wind Direction,Wind SpeedMPH,Gust SpeedMPH,PrecipitationIn,Events,Conditions,WindDirDegrees,DateUTC
12:55 AM,39.2,38.1,96,30.01,10.0,ENE,1.2,-,N/A,,Clear,70,2013-02-06 05:55:00
1:55 AM,36.7,35.8,97,30.01,10.0,NW,1.2,-,N/A,,Clear,320,2013-02-06 06:55:00
2:55 AM,35.1,34.3,97,30.02,6.0,North,2.3,-,N/A,,Clear,360,2013-02-06 07:55:00
3:55 AM,33.6,33.1,98,30.03,6.0,West,2.3,-,N/A,,Clear,270,2013-02-06 08:55:00
4:55 AM,33.1,32.2,96,30.05,7.0,North,1.2,-,N/A,,Clear,10,2013-02-06 09:55:00
5:30 AM,32.0,32.0,100,30.06,9.0,West,1.2,-,N/A,,Partly Cloudy,280,2013-02-06 10:30:00
5:40 AM,32.0,32.0,100,30.06,9.0,WNW,1.2,-,N/A,,Mostly Cloudy,300,2013-02-06 10:40:00
5:55 AM,32.4,31.8,98,30.07,10.0,North,-9999.0,-,N/A,,Mostly Cloudy,0,2013-02-06 10:55:00
6:07 AM,32.0,32.0,100,30.08,2.5,Calm,Calm,-,N/A,,Mostly Cloudy,0,2013-02-06 11:07:00
6:08 AM,32.0,32.0,100,30.08,1.8,Calm,Calm,-,N/A,,Mostly Cloudy,0,2013-02-06 11:08:00
6:10 AM,33.8,32.0,93,30.08,1.0,Calm,Calm,-,N/A,,Mostly Cloudy,0,2013-02-06 11:10:00
6:11 AM,33.8,32.0,93,30.08,0.8,Calm,Calm,-,N/A,Fog,Fog,0,2013-02-06 11:11:00
6:19 AM,33.8,32.0,93,30.08,1.0,Variable,1.2,-,N/A,Fog,Patches of Fog,0,2013-02-06 11:19:00
6:20 AM,33.8,32.0,93,30.08,1.2,West,1.2,-,N/A,Fog,Patches of Fog,260,2013-02-06 11:20:00
6:21 AM,33.8,32.0,93,30.08,2.5,West,1.2,-,N/A,Fog,Patches of Fog,260,2013-02-06 11:21:00
6:22 AM,32.0,32.0,100,30.08,4.0,Calm,Calm,-,N/A,Fog,Patches of Fog,0,2013-02-06 11:22:00
6:36 AM,32.0,32.0,100,30.09,2.0,NNE,2.3,-,N/A,,Mist,20,2013-02-06 11:36:00
6:37 AM,32.0,32.0,100,30.09,1.0,NNE,2.3,-,N/A,,Mist,20,2013-02-06 11:37:00
6:38 AM,32.0,32.0,100,30.09,0.8,North,3.5,-,N/A,Fog-Rain,Light Rain,10,2013-02-06 11:38:00
6:50 AM,30.2,30.2,100,30.10,0.8,North,3.5,-,N/A,Fog-Rain,Freezing Rain,350,2013-02-06 11:50:00
6:51 AM,30.2,30.2,100,30.10,1.0,North,3.5,-,N/A,Fog-Rain,Freezing Rain,350,2013-02-06 11:51:00
6:52 AM,30.2,30.2,100,30.10,1.5,North,3.5,-,N/A,Fog-Rain,Freezing Rain,350,2013-02-06 11:52:00
6:53 AM,30.2,30.2,100,30.10,4.0,NNW,2.3,-,N/A,Fog-Rain,Freezing Rain,340,2013-02-06 11:53:00
6:54 AM,30.2,30.2,100,30.10,2.5,NNW,2.3,-,N/A,Fog-Rain,Freezing Rain,340,2013-02-06 11:54:00
6:55 AM,30.7,30.7,100,30.10,2.0,NNW,2.3,-,N/A,Fog-Rain,Freezing Rain,340,2013-02-06 11:55:00
6:56 AM,30.2,30.2,100,30.10,1.2,NNW,2.3,-,N/A,Fog-Rain,Freezing Rain,340,2013-02-06 11:56:00
6:57 AM,30.2,30.2,100,30.10,1.0,NNW,2.3,-,N/A,Fog-Rain,Freezing Rain,330,2013-02-06 11:57:00
6:58 AM,32.0,32.0,100,30.10,0.5,NW,2.3,-,N/A,Fog-Rain,Light Rain Showers,320,2013-02-06 11:58:00
7:06 AM,30.2,30.2,100,30.11,1.0,NNW,3.5,-,N/A,Fog-Rain,Freezing Rain,330,2013-02-06 12:06:00
7:07 AM,-9999,-9999,N/A,30.11,2.5,NNW,3.5,-,N/A,Fog-Rain,Light Rain Showers,330,2013-02-06 12:07:00
7:08 AM,32.0,32.0,100,30.11,5.0,NW,3.5,-,N/A,Fog-Rain,Light Rain Showers,320,2013-02-06 12:08:00
7:09 AM,32.0,32.0,100,30.11,6.0,NW,3.5,-,N/A,Fog-Rain,Light Rain Showers,320,2013-02-06 12:09:00
7:11 AM,32.0,32.0,100,30.11,2.0,NNW,3.5,-,N/A,Fog-Rain,Light Rain Showers,330,2013-02-06 12:11:00
7:12 AM,32.0,32.0,100,30.11,1.5,NNW,3.5,-,N/A,Fog,Patches of Fog,330,2013-02-06 12:12:00
7:13 AM,32.0,32.0,100,30.11,0.8,NNW,3.5,-,N/A,Rain,Light Rain Showers,330,2013-02-06 12:13:00
7:55 AM,32.2,32.5,100,30.14,0.2,Variable,1.2,-,N/A,Fog-Rain,Light Rain Showers,0,2013-02-06 12:55:00
8:15 AM,33.8,33.8,100,30.15,0.2,North,3.5,-,N/A,Fog-Rain,Light Rain Showers,360,2013-02-06 13:15:00
8:55 AM,-9999,-9999,N/A,30.17,0.2,NNW,4.6,-,N/A,Fog-Rain,Light Rain Showers,330,2013-02-06 13:55:00
9:10 AM,39.2,39.2,100,30.17,0.5,NW,3.5,-,N/A,Fog-Rain,Light Rain Showers,320,2013-02-06 14:10:00
9:13 AM,-9999,-9999,N/A,30.17,1.0,NW,3.5,-,N/A,Rain,Light Rain Showers,320,2013-02-06 14:13:00
9:14 AM,41.0,41.0,100,30.17,1.5,NW,3.5,-,N/A,,Mostly Cloudy,320,2013-02-06 14:14:00
9:15 AM,41.0,41.0,100,30.17,2.0,NNW,3.5,-,N/A,,Scattered Clouds,330,2013-02-06 14:15:00
9:16 AM,41.0,41.0,100,30.17,3.0,NNW,3.5,-,N/A,,Scattered Clouds,330,2013-02-06 14:16:00
9:55 AM,46.2,45.7,98,30.18,10.0,NW,3.5,-,N/A,,Clear,320,2013-02-06 14:55:00
10:21 AM,46.2,45.7,98,30.17,10.0,NW,3.5,-,N/A,,Clear,320,2013-02-06 15:21:00
10:55 AM,57.4,34.7,43,30.18,10.0,NNE,9.2,-,N/A,,Clear,30,2013-02-06 15:55:00
11:55 AM,59.0,32.2,36,30.17,10.0,Variable,3.5,-,N/A,,Clear,0,2013-02-06 16:55:00
12:55 PM,61.5,33.3,35,30.15,10.0,North,6.9,-,N/A,,Clear,360,2013-02-06 17:55:00
1:55 PM,63.5,30.4,29,30.14,10.0,Variable,3.5,-,N/A,,Clear,0,2013-02-06 18:55:00
2:55 PM,63.9,29.1,27,30.13,10.0,Variable,3.5,-,N/A,,Clear,0,2013-02-06 19:55:00
3:55 PM,64.2,27.9,25,30.13,10.0,Variable,2.3,-,N/A,,Clear,0,2013-02-06 20:55:00
4:55 PM,63.9,27.0,25,30.15,10.0,West,8.1,-,N/A,,Clear,280,2013-02-06 21:55:00
5:55 PM,59.0,27.5,30,30.17,10.0,West,4.6,-,N/A,,Clear,280,2013-02-06 22:55:00
6:55 PM,54.0,30.9,41,30.20,10.0,NW,3.5,-,N/A,,Clear,320,2013-02-06 23:55:00
7:55 PM,45.1,33.8,65,30.22,10.0,North,4.6,-,N/A,,Clear,10,2013-02-07 00:55:00
8:55 PM,41.4,34.0,75,30.24,10.0,North,2.3,-,N/A,,Clear,10,2013-02-07 01:55:00
9:55 PM,41.7,33.1,71,30.24,10.0,NE,3.5,-,N/A,,Clear,50,2013-02-07 02:55:00
10:55 PM,48.9,25.2,40,30.24,10.0,East,4.6,-,N/A,,Clear,90,2013-02-07 03:55:00
11:55 PM,40.3,31.5,71,30.27,10.0,ENE,4.6,-,N/A,,Clear,60,2013-02-07 04:55:00